Location: Belfast
(54.5830°N, 5.9330°W)
Time: 14:09:14
(UTC+01:00)

ISS - Pass Details

Date: 24 May 2017
Orbit: 402 x 408 km, 51.6° (Epoch: 26 May)

Event Time Altitude Azimuth Distance (km) Brightness Sun altitude
Rises 04:06:14 0° 276° (W) 2,332 -0.3 -6.7°
Reaches altitude 10° 04:08:38 10° 260° (W) 1,467 -1.4 -6.5°
Maximum altitude 04:11:11 21° 209° (SSW) 972 -2.5 -6.3°
Drops below altitude 10° 04:13:43 10° 157° (SSE) 1,458 -1.3 -6.0°
Sets 04:16:06 0° 141° (SE) 2,313 -0.1 -5.8°
